Weather in Sabaneta

Dominican Republic     19°28′18″N   71°20′08″W
temp.,
°C
wind,
m/s
gust,
m/s
humid.,
%
clouds,
%
prec.,
mm/h
press.,
hPa
HPBL,
m
18 april, sun
sun1823:00+23ssw11770 0.0 101611
02:00+22se22760 0.0 101427
05:00+21se11740 0.0 101415
08:00+25e01570 0.0 1016215
11:00+33nne21370 0.0 10161271
14:00+37n43254 0.0 10132824
17:00+32w143879 0.1 1012814
20:00+25wsw35610 0.1 1015137
19 april, mon
mon1923:00+23s11745 0.0 101715
02:00+22ese23665 0.0 101651
05:00+21se1168100 0.0 101620
08:00+25ene115493 0.0 1017181
11:00+33n223237 0.0 10171273
14:00+37n122097 0.0 10133000
17:00+35sw442670 0.0 10121249
20:00+26w45603 0.0 1015212
20 april, tue
tue2023:00+23ese11830 0.0 101715
02:00+22ese22800 0.0 101641
05:00+21ese11750 0.0 101621
08:00+25e11550 0.0 1017231
11:00+33ne23270 0.0 10171363
14:00+37ene55170 0.0 10133464
17:00+36ene532021 0.0 10123211
20:00+25wsw610725 0.0 1016442
21 april, wed
wed2123:00+23e11872 0.0 101711
02:00+21e228893 0.0 101637
05:00+20e11835 0.0 101621
08:00+24e11595 0.0 1017244
11:00+32ne233319 0.0 10171616
14:00+36ne44216 0.0 10133056
17:00+34ne452789 0.0 10122275
20:00+26ese23610 0.1 101581
22 april, thu
thu2223:00+23sse11755 0.0 101634
02:00+21e11815 0.0 101518
05:00+20ese118387 0.0 101525
08:00+24e2264100 0.0 1017252
11:00+32ne23337 0.0 10161613
14:00+36n33229 0.0 10132975
17:00+30s013989 0.0 1012151
20:00+26sw225925 0.1 101536